Site-Specific Forecast Table for Stillwater
(NFDRS Fuel Model T - Tallgrass with brush)
DATE TIME TAIR RELH WSPD RAIN_24H BI SC ERC IC 1-HR 10-HR 100-HR 1000-HR HERB WOODY KBDI
Mon Sep 25, 2017 7:00 am CDT 70°F 87% 9 mph 0.00 in. 0 0 0 0% 15% 16% 11% 7% 170% 145% 425
Mon Sep 25, 2017 8:00 am CDT 73°F 81% 10 mph 0.00 in. 0 0 0 0% 15% 16% 11% 7% 170% 145% 425
Mon Sep 25, 2017 9:00 am CDT 76°F 75% 11 mph 0.00 in. 2 2 0 2% 14% 16% 11% 7% 170% 145% 425
Mon Sep 25, 2017 10:00 am CDT 79°F 68% 12 mph 0.00 in. 6 5 1 4% 12% 15% 11% 7% 170% 145% 425
Mon Sep 25, 2017 11:00 am CDT 82°F 63% 13 mph 0.00 in. 9 7 1 6% 10% 15% 11% 7% 170% 145% 425
Mon Sep 25, 2017 12:00 pm CDT 84°F 58% 14 mph 0.00 in. 11 9 2 8% 9% 14% 11% 7% 170% 145% 425
Mon Sep 25, 2017 1:00 pm CDT 87°F 53% 15 mph 0.00 in. 14 10 3 11% 8% 13% 10% 7% 170% 145% 425
Mon Sep 25, 2017 2:00 pm CDT 87°F 52% 16 mph 0.00 in. 16 11 3 14% 7% 11% 10% 7% 170% 145% 425
Mon Sep 25, 2017 3:00 pm CDT 86°F 51% 17 mph 0.00 in. 17 12 4 15% 7% 11% 10% 7% 170% 145% 425
Mon Sep 25, 2017 4:00 pm CDT 86°F 50% 18 mph 0.00 in. 18 12 4 15% 7% 10% 10% 7% 170% 145% 425
Mon Sep 25, 2017 5:00 pm CDT 84°F 53% 15 mph 0.00 in. 16 10 4 13% 7% 10% 10% 7% 170% 145% 431
Mon Sep 25, 2017 6:00 pm CDT 82°F 56% 12 mph 0.00 in. 14 8 4 11% 7% 10% 10% 7% 170% 145% 431
Mon Sep 25, 2017 7:00 pm CDT 79°F 59% 9 mph 0.00 in. 11 5 3 8% 8% 10% 10% 7% 170% 145% 431
Mon Sep 25, 2017 8:00 pm CDT 78°F 64% 7 mph 0.00 in. 9 3 3 6% 9% 10% 10% 7% 170% 145% 431
Mon Sep 25, 2017 9:00 pm CDT 76°F 69% 4 mph 0.00 in. 6 2 2 3% 10% 11% 10% 7% 170% 145% 431
Mon Sep 25, 2017 10:00 pm CDT 75°F 74% 1 mph 0.00 in. 3 1 2 2% 11% 11% 10% 7% 170% 145% 431
Mon Sep 25, 2017 11:00 pm CDT 73°F 82% 1 mph 0.16 in. 0 0 0 0% 85% 40% 15% 10% 170% 145% 431
Tue Sep 26, 2017 12:00 am CDT 71°F 90% 2 mph 0.31 in. 0 0 0 0% 85% 48% 17% 10% 170% 145% 431
Tue Sep 26, 2017 1:00 am CDT 70°F 97% 4 mph 0.47 in. 0 0 0 0% 85% 54% 18% 10% 170% 145% 431
Tue Sep 26, 2017 2:00 am CDT 69°F 97% 5 mph 0.49 in. 0 0 0 0% 85% 52% 17% 10% 170% 145% 431
DATE TIME TAIR RELH WSPD RAIN_24H BI SC ERC IC 1-HR 10-HR 100-HR 1000-HR HERB WOODY KBDI
Tue Sep 26, 2017 3:00 am CDT 69°F 97% 6 mph 0.50 in. 0 0 0 0% 85% 54% 18% 10% 170% 145% 431
Tue Sep 26, 2017 4:00 am CDT 69°F 97% 8 mph 0.52 in. 0 0 0 0% 85% 56% 19% 10% 170% 145% 431
Tue Sep 26, 2017 5:00 am CDT 69°F 96% 10 mph 0.59 in. 0 0 0 0% 85% 60% 22% 11% 170% 145% 431
Tue Sep 26, 2017 6:00 am CDT 68°F 96% 11 mph 0.66 in. 0 0 0 0% 85% 60% 22% 11% 170% 145% 431
Tue Sep 26, 2017 7:00 am CDT 67°F 95% 13 mph 0.73 in. 0 0 0 0% 85% 60% 23% 11% 170% 145% 431
Tue Sep 26, 2017 8:00 am CDT 65°F 96% 12 mph 1.33 in. 0 0 0 0% 85% 60% 24% 11% 170% 145% 431
Tue Sep 26, 2017 9:00 am CDT 64°F 97% 12 mph 1.93 in. 0 0 0 0% 85% 60% 24% 12% 170% 145% 431
Tue Sep 26, 2017 10:00 am CDT 62°F 98% 11 mph 2.53 in. 0 0 0 0% 85% 60% 25% 12% 170% 145% 431
Tue Sep 26, 2017 11:00 am CDT 62°F 95% 11 mph 2.68 in. 0 0 0 0% 85% 60% 25% 12% 170% 145% 431
Tue Sep 26, 2017 12:00 pm CDT 63°F 92% 12 mph 2.83 in. 0 0 0 0% 85% 60% 26% 12% 170% 145% 431
Tue Sep 26, 2017 1:00 pm CDT 63°F 88% 12 mph 2.99 in. 0 0 0 0% 85% 60% 27% 12% 170% 145% 431
Tue Sep 26, 2017 2:00 pm CDT 63°F 89% 13 mph 2.99 in. 0 0 0 0% 34% 49% 25% 12% 170% 145% 431
Tue Sep 26, 2017 3:00 pm CDT 62°F 89% 13 mph 2.99 in. 0 0 0 0% 25% 43% 24% 11% 170% 145% 431
Tue Sep 26, 2017 4:00 pm CDT 62°F 90% 13 mph 2.99 in. 0 0 0 0% 22% 39% 24% 11% 170% 145% 431
Tue Sep 26, 2017 5:00 pm CDT 61°F 90% 13 mph 2.99 in. 0 0 0 0% 20% 36% 24% 11% 170% 145% 154
Tue Sep 26, 2017 6:00 pm CDT 61°F 91% 13 mph 2.99 in. 0 0 0 0% 20% 34% 24% 11% 170% 145% 154
Tue Sep 26, 2017 7:00 pm CDT 61°F 92% 13 mph 2.99 in. 0 0 0 0% 21% 33% 24% 11% 170% 145% 154
Tue Sep 26, 2017 8:00 pm CDT 61°F 91% 13 mph 2.99 in. 0 0 0 0% 21% 32% 24% 11% 170% 145% 154
Tue Sep 26, 2017 9:00 pm CDT 60°F 90% 13 mph 2.99 in. 0 0 0 0% 22% 31% 24% 11% 170% 145% 154
Tue Sep 26, 2017 10:00 pm CDT 60°F 90% 13 mph 2.99 in. 0 0 0 0% 21% 31% 24% 11% 170% 145% 154
DATE TIME TAIR RELH WSPD RAIN_24H BI SC ERC IC 1-HR 10-HR 100-HR 1000-HR HERB WOODY KBDI
Tue Sep 26, 2017 11:00 pm CDT 60°F 90% 13 mph 2.83 in. 0 0 0 0% 21% 30% 24% 11% 170% 145% 154
Wed Sep 27, 2017 12:00 am CDT 59°F 89% 13 mph 2.67 in. 0 0 0 0% 21% 30% 24% 11% 170% 145% 154
Wed Sep 27, 2017 1:00 am CDT 59°F 89% 13 mph 2.52 in. 0 0 0 0% 21% 30% 24% 11% 170% 145% 154
Wed Sep 27, 2017 2:00 am CDT 59°F 89% 13 mph 2.50 in. 0 0 0 0% 20% 30% 25% 11% 170% 145% 154
Wed Sep 27, 2017 3:00 am CDT 59°F 89% 13 mph 2.48 in. 0 0 0 0% 20% 30% 25% 11% 170% 145% 154
Wed Sep 27, 2017 4:00 am CDT 58°F 89% 13 mph 2.47 in. 0 0 0 0% 21% 30% 25% 11% 170% 145% 154
Wed Sep 27, 2017 5:00 am CDT 58°F 91% 13 mph 2.41 in. 0 0 0 0% 85% 40% 26% 12% 170% 145% 154
Wed Sep 27, 2017 6:00 am CDT 58°F 92% 13 mph 2.36 in. 0 0 0 0% 85% 45% 27% 12% 170% 145% 154
Wed Sep 27, 2017 7:00 am CDT 58°F 93% 13 mph 2.30 in. 0 0 0 0% 85% 49% 27% 13% 170% 145% 154
Wed Sep 27, 2017 8:00 am CDT 59°F 93% 14 mph 1.73 in. 0 0 0 0% 85% 52% 28% 13% 170% 145% 154
Wed Sep 27, 2017 9:00 am CDT 59°F 93% 14 mph 1.15 in. 0 0 0 0% 85% 54% 28% 13% 170% 145% 154
Wed Sep 27, 2017 10:00 am CDT 60°F 93% 15 mph 0.58 in. 0 0 0 0% 85% 55% 29% 13% 170% 145% 154
Wed Sep 27, 2017 11:00 am CDT 61°F 92% 14 mph 0.46 in. 0 0 0 0% 85% 57% 29% 13% 170% 145% 154
Wed Sep 27, 2017 12:00 pm CDT 62°F 92% 14 mph 0.33 in. 0 0 0 0% 85% 58% 30% 13% 170% 145% 154
Wed Sep 27, 2017 1:00 pm CDT 62°F 91% 13 mph 0.21 in. 0 0 0 0% 85% 58% 30% 13% 170% 145% 154
Wed Sep 27, 2017 2:00 pm CDT 62°F 90% 14 mph 0.21 in. 0 0 0 0% 34% 48% 29% 13% 170% 145% 154
Wed Sep 27, 2017 3:00 pm CDT 63°F 90% 15 mph 0.21 in. 0 0 0 0% 26% 43% 28% 12% 170% 145% 154
Wed Sep 27, 2017 4:00 pm CDT 63°F 89% 15 mph 0.21 in. 0 0 0 0% 22% 39% 28% 12% 170% 145% 154
Wed Sep 27, 2017 5:00 pm CDT 62°F 88% 15 mph 0.21 in. 0 0 0 0% 20% 36% 28% 12% 170% 145% 136
Wed Sep 27, 2017 6:00 pm CDT 62°F 88% 14 mph 0.21 in. 0 0 0 0% 19% 34% 28% 12% 170% 145% 136
DATE TIME TAIR RELH WSPD RAIN_24H BI SC ERC IC 1-HR 10-HR 100-HR 1000-HR HERB WOODY KBDI
Wed Sep 27, 2017 7:00 pm CDT 61°F 88% 13 mph 0.21 in. 0 0 0 0% 19% 33% 28% 12% 170% 145% 136
Wed Sep 27, 2017 8:00 pm CDT 61°F 86% 12 mph 0.21 in. 0 0 0 0% 18% 32% 28% 12% 170% 145% 136
Wed Sep 27, 2017 9:00 pm CDT 61°F 84% 11 mph 0.21 in. 0 0 0 0% 18% 31% 28% 13% 170% 145% 136
Wed Sep 27, 2017 10:00 pm CDT 60°F 81% 10 mph 0.21 in. 0 0 0 0% 17% 30% 28% 13% 170% 145% 136
Wed Sep 27, 2017 11:00 pm CDT 60°F 80% 9 mph 0.21 in. 0 0 0 0% 16% 29% 28% 13% 170% 145% 136
Thu Sep 28, 2017 12:00 am CDT 60°F 80% 9 mph 0.21 in. 0 0 0 0% 16% 28% 28% 13% 170% 145% 136
Thu Sep 28, 2017 1:00 am CDT 59°F 79% 8 mph 0.21 in. 0 0 0 0% 15% 27% 28% 13% 170% 145% 136
Thu Sep 28, 2017 2:00 am CDT 59°F 78% 9 mph 0.21 in. 0 0 0 0% 15% 27% 27% 13% 170% 145% 136
Thu Sep 28, 2017 3:00 am CDT 59°F 78% 9 mph 0.21 in. 0 0 0 0% 15% 26% 27% 13% 170% 145% 136
Thu Sep 28, 2017 4:00 am CDT 59°F 77% 9 mph 0.21 in. 0 0 0 0% 15% 25% 27% 13% 170% 145% 136
Thu Sep 28, 2017 5:00 am CDT 58°F 76% 9 mph 0.20 in. 0 0 0 0% 14% 25% 27% 13% 170% 145% 136
Thu Sep 28, 2017 6:00 am CDT 58°F 75% 9 mph 0.18 in. 0 0 0 0% 14% 24% 26% 13% 170% 145% 136
Thu Sep 28, 2017 7:00 am CDT 58°F 74% 9 mph 0.17 in. 0 1 0 1% 14% 23% 26% 13% 170% 145% 136
Thu Sep 28, 2017 8:00 am CDT 59°F 71% 10 mph 0.14 in. 0 2 0 1% 13% 22% 26% 13% 170% 145% 136
Thu Sep 28, 2017 9:00 am CDT 59°F 69% 10 mph 0.12 in. 0 3 0 2% 13% 21% 25% 13% 170% 145% 136
Thu Sep 28, 2017 10:00 am CDT 60°F 66% 10 mph 0.09 in. 2 3 0 2% 12% 20% 25% 12% 170% 145% 136
Thu Sep 28, 2017 11:00 am CDT 64°F 61% 11 mph 0.06 in. 4 4 0 3% 11% 19% 24% 12% 170% 145% 136
Thu Sep 28, 2017 12:00 pm CDT 67°F 56% 11 mph 0.03 in. 6 5 1 5% 10% 17% 23% 11% 170% 145% 136
Thu Sep 28, 2017 1:00 pm CDT 70°F 50% 12 mph 0.00 in. 8 6 2 7% 9% 16% 23% 11% 170% 145% 136